[[{"header":{"parameterUnit":"m.s-1","parameterCategory":1,"la1":30.2991,"la2":30.254,"lo1":-89.0895,"lo2":-89.0444,"dy":0.0017,"dx":0.0017,"nx":28,"ny":28,"refTime":"2024-07-11T09:00:00:Z","depth":0,"parameterNumber":2,"parameterNumberName":"U-component_of_WINDS"},"data":[0,0,0,0,0,0,0,0,0,0,0,0,0,0,0,0,0,0,0,0,0,0,0,0,0,0,0,0,0,0,0,0,0,0,0,0,0,0,0,0,0,0,0,0,0,0,0,0,0,0,0,0,0,0,0,0,0,0,3.1512,3.1513,0,3.1597,3.1598,3.1598,3.155,3.1548,3.1546,3.1544,3.163,3.1634,3.1639,0,0,0,0,0,0,0,0,0,0,0,0,0,3.1308,3.1312,3.1512,3.1513,3.1514,3.1596,3.1598,3.1599,3.1551,3.1548,3.1545,3.1542,3.1629,3.1634,3.1639,0,0,0,0,0,0,0,0,0,0,0,0,0,3.1395,3.1313,3.1512,3.15,3.15,3.1596,3.1598,3.1599,3.1552,3.1548,3.1544,3.1541,3.1627,3.1633,3.164,3.1752,0,0,3.1661,3.1664,0,0,0,0,0,0,0,0,3.139,3.1403,3.1501,3.1501,3.1501,3.1559,3.1557,3.165,3.1552,3.1532,3.1543,3.1539,3.1609,3.1617,3.1641,3.1756,3.176,3.1661,3.1665,3.1668,3.167,0,0,0,0,0,0,0,3.1384,3.1399,3.1545,3.1502,3.1502,3.149,3.1499,3.1575,3.1589,3.1533,3.153,3.1541,3.1609,3.1635,3.1643,3.1761,3.1661,3.1667,3.1671,3.1674,3.1971,3.1974,0,0,0,0,0,0,3.1379,3.1394,3.1543,3.1548,3.1436,3.1497,3.1506,3.1544,3.1588,3.1592,3.1544,3.1538,3.1625,3.1635,3.1645,3.1778,3.1668,3.1674,3.1678,3.1967,3.1972,3.1976,0,0,0,0,0,0,3.1375,3.1393,3.1539,3.147,3.1488,3.1504,3.1547,3.1548,3.1573,3.1596,3.1599,3.1567,3.1622,3.1636,3.1726,3.178,3.1677,3.1684,3.1962,3.1968,3.1974,3.2044,0,0,0,0,0,0,3.1369,3.1392,3.1435,3.1471,3.1492,3.1619,3.1551,3.1552,3.1585,3.1579,3.1619,3.1622,3.1621,3.1716,3.1732,3.1787,3.1689,3.1958,3.1965,3.1972,3.2037,3.2052,3.2064,0,0,0,0,0,3.1362,3.1452,3.1437,3.1455,3.1546,3.1622,3.1633,3.1629,3.159,3.1633,3.1647,3.1621,3.1772,3.1725,3.1744,3.1802,3.1954,3.1963,3.1971,3.2031,3.2049,3.2064,0,0,0,0,0,0,3.1421,3.1456,3.1441,3.1545,3.1581,3.1614,3.1668,3.1649,3.1697,3.1689,3.1682,3.1692,3.1784,3.1802,3.175,3.1912,3.1857,3.1869,3.1896,3.1913,3.1926,3.1919,3.1695,0,0,0,0,0,3.1447,3.1505,3.1533,3.1622,3.1641,3.1652,3.1684,3.1678,3.1715,3.173,3.1751,3.1788,3.1843,3.1879,3.1932,3.204,3.2047,3.2089,3.2103,3.2114,3.2124,3.218,3.2199,3.2004,3.2004,3.2004,0,0,3.1499,3.1526,3.1563,3.1635,3.1662,3.1722,3.1665,3.1731,3.1775,3.174,3.1825,3.1842,3.1882,3.1981,3.2026,3.1999,3.218,3.2125,3.2134,3.2138,3.2191,3.221,3.2226,3.201,3.2009,3.2008,0,0,3.1625,3.1652,3.1728,3.1756,3.1798,3.1804,3.1822,3.1858,3.1868,3.1953,3.1927,3.198,3.2076,3.2105,3.2132,3.2269,3.2245,3.2286,3.2356,3.2411,3.2426,3.244,3.2486,3.2503,3.2297,3.2297,3.2297,0,3.1685,3.1775,3.177,3.1838,3.1869,3.184,3.1916,3.1944,3.2001,3.2023,3.1992,3.2111,3.2136,3.224,3.2273,3.2297,3.2316,3.228,3.2425,3.2438,3.2451,3.2494,3.2512,3.2301,3.2301,3.23,3.23,0,3.1845,3.1908,3.1965,3.2019,3.2057,3.2129,3.2134,3.2173,3.2164,3.2174,3.226,3.2289,3.2346,3.2371,3.2363,3.2473,3.2455,3.2425,3.2369,3.2474,3.2514,3.2531,3.2308,3.2306,3.2305,3.2304,0,0,3.201,3.206,3.2081,3.2104,3.2147,3.2195,3.2266,3.2321,3.2354,3.2394,3.2451,3.2533,3.2505,3.2536,3.2531,3.258,3.2682,3.2543,3.2544,3.2566,3.2803,3.2823,3.2843,3.2668,3.2672,3.2674,3.2799,0,3.2136,3.2259,3.2256,3.2369,3.2426,3.2399,3.246,3.2492,3.2503,3.2552,3.2564,3.2621,3.2581,3.2599,3.2646,3.266,3.273,3.2651,3.272,3.2722,3.2708,3.2865,3.2887,3.3003,3.2815,3.2818,3.282,0,3.23,3.2345,3.2463,3.2496,3.252,3.2575,3.2624,3.2672,3.2709,3.2713,3.2747,3.2734,3.2804,3.2749,3.2844,3.2791,3.2819,3.283,3.2835,3.2839,3.2775,3.2871,3.304,3.3057,3.2845,3.2843,3.2841,0,3.2405,3.2495,3.2577,3.2598,3.264,3.2678,3.2697,3.273,3.2763,3.2807,3.2827,3.2879,3.2906,3.2946,3.2947,3.2907,3.3043,3.2988,3.3047,3.3046,3.3074,3.3072,3.3248,3.3097,3.3097,3.3097,3.3096,0,3.2545,3.2618,3.2624,3.2674,3.2755,3.2751,3.2831,3.2846,3.2875,3.2927,3.2908,3.2957,3.2957,3.3007,3.3008,3.3085,3.3099,3.3103,3.3102,3.3103,3.3102,3.312,3.311,3.3101,3.31,3.3099,3.3099,0,3.2675,3.2682,3.2769,3.2801,3.2811,3.2868,3.2895,3.2942,3.2951,3.3017,3.3033,3.3046,3.3104,3.3109,3.3177,3.3177,3.327,3.3262,3.3258,3.3255,3.3313,3.3306,3.3504,3.3529,3.3364,3.3366,3.3367,0,3.2762,3.2817,3.2855,3.2888,3.2909,3.2964,3.2996,3.2995,3.303,3.3075,3.3116,3.3172,3.3216,3.3309,3.3325,3.3375,3.3366,3.3432,3.3374,3.3373,3.3364,3.3359,3.3364,3.3443,3.3445,3.3446,3.3447,0,3.2916,3.2916,3.2965,3.3014,3.3054,3.3093,3.3129,3.3158,3.316,3.3201,3.3259,3.3293,3.3361,3.3416,3.3465,3.3484,3.3466,3.3466,3.3482,3.3482,3.3476,3.3477,3.3285,3.3461,3.3459,3.3458,3.3458,3.3457,3.3025,3.3072,3.3105,3.3159,3.3186,3.322,3.3266,3.328,3.3328,3.3383,3.338,3.3443,3.3477,3.3541,3.3564,3.3613,3.3591,3.3615,3.362,3.3625,3.363,3.347,3.3623,3.3623,3.3622,3.3622,3.3622,0,3.3175,3.3195,3.3245,3.3296,3.3338,3.3318,3.3356,3.3393,3.3449,3.3482,3.3525,3.3591,3.3644,3.3664,3.3715,3.3751,3.3743,3.3764,3.376,3.3764,3.3648,3.3628,3.3769,3.3769,3.3769,3.3769,3.3769,3.3769,3.3258,3.3336,3.334,3.343,3.345,3.3511,3.3535,3.3566,3.3592,3.3666,3.371,3.3722,3.375,3.3802,3.3849,3.3854,3.3872,3.3896,3.3897,3.3787,3.3773,3.3758,3.3739,3.3901,3.3901,3.4008,3.4009,3.4009]},{"header":{"parameterUnit":"m.s-1","parameterCategory":1,"la1":30.2991,"la2":30.254,"lo1":-89.0895,"lo2":-89.0444,"dy":0.0017,"dx":0.0017,"nx":28,"ny":28,"refTime":"2024-07-11T09:00:00:Z","depth":0,"parameterNumber":3,"parameterNumberName":"V-component_of_WINDS"},"data":[0,0,0,0,0,0,0,0,0,0,0,0,0,0,0,0,0,0,0,0,0,0,0,0,0,0,0,0,0,0,0,0,0,0,0,0,0,0,0,0,0,0,0,0,0,0,0,0,0,0,0,0,0,0,0,0,0,0,0.321,0.321,0,0.3218,0.3218,0.3218,0.3194,0.3194,0.3193,0.3192,0.3203,0.3204,0.3205,0,0,0,0,0,0,0,0,0,0,0,0,0,0.3176,0.3177,0.321,0.321,0.321,0.3218,0.3218,0.3218,0.3195,0.3194,0.3193,0.3192,0.3202,0.3204,0.3205,0,0,0,0,0,0,0,0,0,0,0,0,0,0.3188,0.3177,0.321,0.3199,0.3198,0.3218,0.3218,0.3218,0.3195,0.3194,0.3193,0.3191,0.3202,0.3203,0.3205,0.3236,0,0,0.3209,0.321,0,0,0,0,0,0,0,0,0.3187,0.3189,0.3201,0.32,0.3199,0.3204,0.321,0.3224,0.3195,0.3196,0.3192,0.3191,0.3204,0.3205,0.3209,0.3236,0.3237,0.3209,0.321,0.3211,0.3211,0,0,0,0,0,0,0,0.3186,0.3189,0.3213,0.3201,0.32,0.3194,0.3195,0.3212,0.3206,0.3196,0.3194,0.3195,0.3204,0.3208,0.3209,0.3237,0.3209,0.3211,0.3212,0.3212,0.3288,0.3289,0,0,0,0,0,0,0.3187,0.3188,0.3213,0.3213,0.319,0.3196,0.3197,0.3204,0.3206,0.3205,0.3196,0.3194,0.3206,0.3208,0.321,0.3245,0.3211,0.3212,0.3213,0.3287,0.3288,0.3289,0,0,0,0,0,0,0.3186,0.3189,0.3213,0.32,0.3203,0.3198,0.3206,0.3204,0.3209,0.3206,0.3205,0.3202,0.3205,0.3208,0.3229,0.3245,0.3213,0.3214,0.3285,0.3287,0.3289,0.3317,0,0,0,0,0,0,0.3185,0.3189,0.3201,0.3201,0.3204,0.3232,0.3207,0.3205,0.3211,0.3208,0.3211,0.3211,0.3205,0.3227,0.323,0.3247,0.3215,0.3284,0.3286,0.3288,0.3314,0.3319,0.3323,0,0,0,0,0,0.3184,0.3209,0.3201,0.3205,0.3218,0.3233,0.3234,0.3226,0.3212,0.3224,0.3222,0.3211,0.3243,0.3229,0.3233,0.325,0.3283,0.3285,0.3288,0.3312,0.3318,0.3323,0,0,0,0,0,0,0.3213,0.3209,0.32,0.3226,0.323,0.3229,0.3243,0.3233,0.3241,0.3238,0.3228,0.3229,0.3252,0.3253,0.3238,0.3279,0.326,0.3264,0.3278,0.3283,0.3288,0.3287,0.3217,0,0,0,0,0,0.3222,0.3233,0.323,0.3253,0.3255,0.3249,0.3255,0.3248,0.3251,0.3253,0.3253,0.3257,0.3268,0.3276,0.3286,0.3314,0.3314,0.3327,0.3332,0.3336,0.3339,0.3353,0.3358,0.3298,0.3298,0.3298,0,0,0.3241,0.324,0.3249,0.3258,0.326,0.3273,0.325,0.3265,0.3274,0.3256,0.3275,0.3275,0.3279,0.3304,0.3315,0.3305,0.3355,0.3339,0.3342,0.3343,0.3356,0.3362,0.3367,0.3299,0.3299,0.3299,0,0,0.3283,0.3283,0.3302,0.3304,0.3306,0.3302,0.3306,0.3306,0.3305,0.3324,0.331,0.3321,0.334,0.3343,0.3348,0.3388,0.3377,0.3391,0.3415,0.3429,0.3434,0.3438,0.3452,0.3457,0.3395,0.3395,0.3395,0,0.3307,0.3324,0.3313,0.3328,0.3332,0.3315,0.3334,0.3336,0.3342,0.3346,0.3335,0.3358,0.3359,0.3384,0.3393,0.3397,0.3402,0.3391,0.3434,0.3438,0.3441,0.3455,0.346,0.3396,0.3396,0.3396,0.3396,0,0.3353,0.3365,0.338,0.3385,0.3391,0.3408,0.34,0.3407,0.3399,0.3396,0.3415,0.3416,0.3425,0.343,0.3423,0.3453,0.3447,0.3435,0.3416,0.3449,0.3461,0.3466,0.3399,0.3398,0.3398,0.3397,0,0,0.3414,0.3411,0.3417,0.3418,0.3419,0.3428,0.3444,0.3452,0.3458,0.3462,0.3475,0.3491,0.3479,0.3483,0.3476,0.3488,0.3519,0.3475,0.3475,0.3483,0.3551,0.356,0.3566,0.3512,0.3513,0.3513,0.3551,0,0.3455,0.348,0.347,0.3497,0.3508,0.349,0.3504,0.3506,0.3502,0.3511,0.3508,0.3519,0.3503,0.3505,0.3516,0.3513,0.3533,0.351,0.3524,0.3524,0.3523,0.3573,0.3583,0.3618,0.3556,0.3556,0.3557,0,0.3506,0.351,0.3538,0.3535,0.3539,0.3551,0.3557,0.3565,0.3567,0.3563,0.3568,0.3557,0.3572,0.3553,0.3573,0.3558,0.3563,0.3562,0.3563,0.3564,0.3543,0.3575,0.3629,0.3634,0.3564,0.3564,0.3563,0,0.3547,0.356,0.3578,0.3579,0.3577,0.3586,0.3585,0.3585,0.359,0.3595,0.3598,0.3605,0.3609,0.3614,0.3606,0.3593,0.3627,0.3608,0.3625,0.3625,0.3634,0.3633,0.3689,0.3637,0.3636,0.3636,0.3636,0,0.3593,0.361,0.3596,0.3607,0.3626,0.3613,0.3632,0.363,0.363,0.364,0.3626,0.3636,0.3624,0.3633,0.3627,0.3644,0.3646,0.3644,0.3642,0.3645,0.3645,0.3648,0.3646,0.3638,0.3637,0.3637,0.3637,0,0.3642,0.3634,0.3652,0.3647,0.3646,0.366,0.3656,0.3666,0.366,0.3673,0.3676,0.3668,0.3677,0.367,0.3679,0.3675,0.3697,0.3692,0.3697,0.3695,0.3713,0.3711,0.3773,0.378,0.3723,0.3724,0.3724,0,0.3673,0.3685,0.3681,0.3686,0.3686,0.3695,0.3699,0.3687,0.3692,0.3694,0.3703,0.3711,0.3717,0.3733,0.3728,0.3735,0.373,0.3751,0.3731,0.3733,0.373,0.3729,0.373,0.3755,0.3756,0.3756,0.3757,0,0.3727,0.3721,0.3727,0.3732,0.3737,0.374,0.3742,0.3747,0.3735,0.3741,0.375,0.3754,0.3763,0.3771,0.3776,0.3775,0.3764,0.3763,0.3767,0.3771,0.3772,0.3771,0.3708,0.3762,0.3761,0.3761,0.3761,0.376,0.3767,0.3777,0.3775,0.3782,0.3782,0.3784,0.3792,0.3787,0.3794,0.38,0.3792,0.3803,0.3803,0.3808,0.3809,0.3817,0.3808,0.3815,0.3816,0.3818,0.382,0.3771,0.3818,0.3818,0.3817,0.3817,0.3817,0,0.382,0.3817,0.3824,0.3826,0.3832,0.3819,0.382,0.3826,0.3835,0.3835,0.384,0.385,0.3857,0.3852,0.3858,0.3865,0.386,0.3867,0.3867,0.3867,0.3828,0.3823,0.3871,0.3871,0.3871,0.3871,0.3871,0.3871,0.3848,0.3864,0.3858,0.3873,0.387,0.388,0.3881,0.3883,0.3883,0.3893,0.3899,0.3895,0.3893,0.3898,0.3904,0.3903,0.3905,0.3914,0.3911,0.3875,0.387,0.3865,0.386,0.3915,0.3915,0.3949,0.3949,0.395]}]]